Vorticity
nan nan nan nan nan nan nan nan nan nan nan nan nan nan nan nan nan nan nan nan nan nan nan nan nan nan nan nan nan nan nan nan nan nan nan nan nan nan nan nan nan nan nan nan
nan 9 12 13 9 7 3 2 10 10 10 11 12 15 11 8 6 5 4 6 7 6 9 11 12 11 8 7 6 6 6 8 5 6 8 8 9 9 9 9 10 9 8 nan
nan 7 14 12 8 6 4 2 7 8 8 5 9 12 15 11 6 6 6 7 7 9 7 8 10 11 10 10 8 7 7 6 7 6 5 7 8 9 9 10 11 11 9 nan
nan 9 9 7 9 9 8 13 5 5 7 9 6 12 11 17 13 7 6 5 5 5 8 8 9 8 10 10 8 8 8 7 9 8 7 7 6 7 8 9 8 10 11 nan
nan 6 14 12 12 8 18 23 5 1 8 6 8 13 10 13 14 17 15 8 8 7 8 11 12 6 8 10 10 8 7 7 9 8 6 6 6 6 8 9 9 9 9 nan
nan 11 11 8 14 10 14 6 6 7 9 10 12 7 9 10 8 11 17 14 11 14 10 10 11 10 10 9 9 9 11 6 7 8 8 7 6 6 6 7 9 8 10 nan
nan 11 9 8 4 7 5 6 6 8 10 10 7 8 10 6 11 9 12 14 10 11 13 13 12 11 10 12 8 6 8 7 8 7 8 9 9 9 7 7 9 8 8 nan
nan 10 15 10 8 10 2 3 6 12 8 10 10 4 9 7 12 20 18 14 10 13 10 8 10 12 11 9 9 9 8 8 7 7 7 8 9 8 9 8 8 8 9 nan
nan 7 9 11 12 12 9 6 7 9 9 9 7 6 9 8 8 18 18 12 9 9 15 10 4 6 10 11 11 8 5 8 8 8 8 8 8 8 8 8 7 8 8 nan
nan 13 8 9 8 11 17 6 4 9 12 8 10 11 12 6 8 9 10 6 6 6 9 10 8 5 6 12 16 12 9 11 8 9 8 9 8 8 9 9 9 8 8 nan
nan 9 7 9 11 6 4 6 12 15 9 9 9 11 15 11 9 9 8 11 9 6 4 8 7 6 6 11 16 15 11 10 10 10 9 9 9 9 9 8 9 9 9 nan
nan 3 12 7 6 12 13 9 7 8 9 7 10 9 15 15 9 9 10 12 9 9 5 6 7 5 8 14 16 13 12 11 9 8 10 10 9 10 8 8 9 10 8 nan
nan 3 5 9 14 15 14 8 6 7 15 13 5 8 9 11 11 14 12 10 11 9 10 7 7 7 10 12 16 18 14 9 10 11 9 11 10 9 9 9 10 8 10 nan
nan 16 14 10 8 7 7 11 8 6 7 12 2 12 11 12 11 11 11 11 12 9 7 8 13 14 9 11 13 14 16 15 12 11 10 9 10 9 9 10 10 11 13 nan
nan 10 7 11 12 9 8 9 9 9 9 10 16 11 11 13 12 10 9 8 11 12 10 11 11 10 8 9 10 10 14 19 17 13 12 10 12 13 11 10 13 13 10 nan
nan 15 11 5 8 11 12 7 11 13 9 9 16 9 13 9 13 14 13 10 9 9 9 9 8 8 7 8 8 10 11 13 16 15 13 13 11 11 13 12 12 11 8 nan
nan 12 9 6 8 10 8 12 16 16 14 12 11 11 9 11 12 9 8 10 10 10 10 8 7 7 6 7 9 12 10 9 11 10 11 14 13 8 8 12 10 8 10 nan
nan 8 12 11 10 14 8 8 15 9 3 8 13 16 14 11 9 11 11 10 10 9 8 8 8 8 9 9 10 9 10 11 10 8 10 10 10 11 10 9 8 8 9 nan
nan 9 10 12 8 8 12 14 10 4 8 10 9 9 9 7 7 9 16 13 12 9 8 9 8 9 10 10 9 8 9 10 9 10 10 11 10 10 10 8 8 8 9 nan
nan 11 12 9 13 10 6 8 9 12 12 18 11 11 7 7 8 10 12 12 11 11 9 10 9 9 10 8 9 9 9 10 9 10 10 9 9 9 9 8 8 10 10 nan
nan 13 11 10 8 9 17 12 10 12 11 16 12 8 10 10 10 15 11 13 13 10 7 9 11 10 9 9 8 9 10 8 8 8 9 9 10 9 8 9 9 10 11 nan
nan 7 6 8 7 16 12 12 17 3 15 15 13 10 7 12 15 12 10 12 11 8 10 9 10 11 10 8 8 10 8 8 9 8 8 9 9 8 9 9 10 12 11 nan
nan 14 12 12 5 18 5 -2 17 14 13 10 10 14 12 9 12 9 9 10 10 9 9 10 11 10 10 9 9 10 8 9 10 9 8 7 8 9 9 10 11 11 11 nan
nan 13 11 7 15 25 8 -1 13 14 15 16 12 12 9 11 9 7 10 13 12 10 9 11 11 10 9 10 9 9 11 9 8 8 8 8 8 8 9 11 10 9 9 nan
nan 10 9 3 8 11 14 15 13 13 11 11 10 9 10 9 8 9 11 12 12 11 11 12 8 9 10 10 9 10 9 9 9 8 8 8 9 9 9 9 9 11 11 nan
nan nan nan nan nan nan nan nan nan nan nan nan nan nan nan nan nan nan nan nan nan nan nan nan nan nan nan nan nan nan nan nan nan nan nan nan nan nan nan nan nan nan nan nan
CAPE
552 432 183 0 33 0 23 80 14 58 84 115 45 15 0 0 0 0 0 0 0 0 0 0 0 0 6 31 40 31 30 35 6 1 104 187 304 356 412 303 152 121 0 319
16 242 292 50 40 48 72 30 9 124 101 102 78 0 0 0 0 0 0 0 0 0 0 2 1 0 6 36 21 16 16 6 12 15 121 298 271 180 332 491 380 303 377 633
190 200 48 25 29 109 55 85 63 178 149 13 10 0 3 0 0 0 0 0 0 0 0 0 0 28 30 29 31 14 0 2 0 29 200 453 392 368 469 471 466 472 418 890
110 10 25 7 10 6 2 38 88 91 122 0 0 10 19 9 1 0 0 0 0 0 0 0 0 64 62 56 30 5 0 14 36 113 321 713 674 482 135 182 346 472 1154 1126
213 76 11 16 3 0 2 32 151 89 1 17 8 1 0 9 11 2 0 0 0 0 0 0 1 45 47 40 12 0 24 76 179 207 478 397 598 228 186 453 514 46 384 569
58 0 12 10 15 83 228 156 4 5 0 0 0 0 0 0 5 1 0 0 0 0 0 0 0 35 25 8 6 7 108 99 56 107 291 416 503 676 599 423 462 280 12 189
0 0 1 0 116 64 7 0 0 0 0 0 0 0 4 0 0 0 5 0 0 0 0 0 0 3 5 0 16 72 72 125 84 82 203 388 559 649 806 555 578 512 391 41
0 0 0 0 150 156 4 0 0 0 11 0 0 10 14 0 129 13 0 7 18 22 1 0 11 0 0 0 73 117 100 98 240 227 267 383 551 857 680 771 547 437 480 100
0 0 0 0 0 21 14 0 0 6 0 0 0 0 0 89 389 267 36 76 105 57 57 58 129 123 77 0 0 123 121 61 155 590 562 562 682 785 1203 1460 944 827 498 430
0 0 0 0 0 0 0 0 0 0 0 0 0 0 0 86 300 267 191 20 55 32 0 10 4 19 9 2 0 47 126 131 131 415 1019 1136 943 1003 1080 1186 1336 882 864 702
0 0 0 0 0 0 1 0 0 0 0 0 0 0 0 0 0 355 226 97 0 0 8 1 0 19 6 0 1 94 358 517 395 544 725 1104 1652 1673 1395 1433 1353 1105 930 877
0 0 0 0 0 0 0 0 0 0 0 0 0 0 0 0 0 179 341 119 0 0 0 0 16 0 386 1514 126 79 351 885 819 870 1113 1153 1225 1778 2009 1771 1704 1699 1732 1121
0 0 0 0 0 0 0 0 0 0 0 1 4 0 0 0 0 0 433 168 0 0 0 0 3 21 1787 1943 1399 254 853 1058 1026 1053 1188 1538 1674 1845 2112 2139 1871 1739 1673 1503
0 0 0 0 0 0 0 0 0 0 191 0 0 0 0 14 438 178 447 214 1 0 0 0 358 1040 1911 1878 1877 1689 992 964 1042 1086 1333 1624 1787 1930 2092 2147 2090 1991 1807 1628
0 0 0 0 0 0 0 0 0 0 12 258 22 67 0 803 503 294 256 89 0 0 12 1241 1708 1701 1715 1925 2039 2074 2009 1635 707 1099 1461 1676 1831 1906 1942 1928 1757 1359 997 597
0 0 0 7 1 0 0 0 0 0 1 274 4 120 504 855 1359 1430 1209 868 470 588 1552 1830 1832 1910 1861 1676 1583 1792 1797 2017 1861 1742 1800 1843 1981 1543 1309 1062 737 338 155 165
0 0 0 47 0 0 0 0 0 133 195 322 82 264 715 1016 1791 1738 1573 1494 1547 1771 1777 1692 1586 1605 1446 1610 1601 1756 1539 1499 1664 1561 1143 1020 833 879 872 696 533 575 565 417
0 0 0 0 0 0 0 67 224 284 236 254 692 596 831 862 681 920 956 1283 1284 1338 1330 847 673 695 757 925 1188 1132 1230 1235 1211 1068 899 864 826 693 995 911 789 780 757 747
0 0 0 0 0 0 112 41 324 261 227 349 587 380 410 281 458 467 446 972 882 793 413 356 490 471 513 600 856 899 933 909 1004 1039 1037 1031 1097 979 929 787 705 589 419 455
0 0 0 0 0 0 0 66 164 176 67 335 366 354 324 456 855 668 460 622 468 314 270 450 333 133 225 284 583 822 812 815 814 816 795 750 726 668 708 693 780 572 498 262
0 0 0 0 0 0 0 120 210 5 1 119 215 150 328 553 444 274 366 298 311 207 282 336 166 246 347 306 565 609 462 681 687 809 928 917 707 755 771 703 729 496 276 47
1 1 0 0 0 90 13 318 90 0 20 112 13 149 214 288 471 692 375 240 169 248 225 194 170 241 349 433 536 511 688 673 894 1069 868 889 986 1217 566 457 398 283 356 2
31 0 0 1 0 0 97 22 5 6 180 165 12 122 295 235 242 282 388 287 161 126 110 54 103 265 283 325 340 456 674 1020 1065 855 862 827 227 305 429 332 358 2 47 0
0 1 105 124 166 94 10 27 6 29 11 2 2 185 209 60 0 8 209 198 38 39 63 19 224 413 391 325 372 418 734 945 876 869 703 706 498 150 395 58 7 0 0 0
60 104 96 79 150 256 115 50 11 95 259 219 220 259 274 226 228 240 413 164 0 46 63 191 291 444 464 472 550 739 943 954 1120 763 646 696 755 640 174 52 0 7 0 0
9 43 314 428 129 265 279 60 48 286 278 368 437 557 578 294 170 189 297 139 0 74 202 292 379 523 609 649 599 758 673 804 1215 990 954 862 723 597 515 69 136 0 1 1